Tracking 29892 objects as of 21-Nov-2024
HD Live streaming from Space Station
objects crossing your sky now

SL-16 DEB

Track SL-16 DEB now!
10-day predictions


NORAD ID: 18412
Int'l Code: 1987-041E
Perigee: 840.9 km
Apogee: 1,125.0 km
Inclination: 71.0 °
Period: 104.6 minutes
Semi major axis: 7353 km
RCS: 0.0866 m2 (small)
Launch date: May 13, 1987
Source: Commonwealth of Independent States (former USSR) (CIS)
Launch site: TYURATAM MISSILE AND SPACE COMPLEX (TTMTR)

Note: This is SATELLITE DEBRIS
Your satellite tracking list
Your tracking list is empty




NASA's NSSDC Master Catalog

Two Line Element Set (TLE):
1 18412U 87041E   24325.77801906  .00000346  00000-0  34588-3 0  9994
2 18412  71.0265 100.8015 0193181 333.3564  25.7708 13.76641723883721
Source of the keplerian elements: AFSPC